Location: Rainwater Observatory
(33.2833°N, 89.3833°W)
Time: 20:53:05
(UTC-06:00)

Daily predictions for brighter satellites

Satellite Brightness Start Highest point End
(mag) Time Altitude Azimuth Time Altitude Azimuth Time Altitude Azimuth
COSMOS 2406 3.3 17:07:24 10° NNW 17:13:09 83° ENE 17:18:53 10° SSE
Cosmos 2251 Rocket 4.1 17:10:01 10° N 17:14:57 37° ENE 17:19:50 10° SE
MOS 1 4.4 17:09:29 10° SSE 17:15:01 58° ENE 17:20:34 10° N
CRYOSAT 2 4.4 17:11:42 10° N 17:16:36 73° E 17:21:28 10° S
Cosmos 158 Rocket 4.1 17:14:15 10° NNW 17:19:36 89° WSW 17:24:48 10° SSE
SL-27 R/B 2.8 17:18:01 10° N 17:21:34 46° ENE 17:25:03 10° SSE
OE (NEXTSAT) 4.5 17:19:03 10° WSW 17:22:37 77° NW 17:26:13 10° NE
Meteor 1-5 Rocket 4.3 17:17:59 10° N 17:23:28 89° W 17:29:06 10° S
SL-8 R/B 4.2 17:21:08 10° WSW 17:25:48 54° NW 17:30:30 10° NE
Cosmos 1484 Rocket 3.9 17:24:32 10° SE 17:27:29 22° ENE 17:30:24 10° NNE
Cosmos 2082 Rocket 3.7 17:27:03 10° NNE 17:30:02 14° NE 17:33:01 10° E
Cosmos 1833 Rocket 4.3 17:29:20 10° NNE 17:31:33 12° NE 17:33:05 11° ENE
Cosmos 1544 Rocket 3.6 17:34:38 10° N 17:39:08 87° E 17:43:35 10° S
COSMO-SKYMED 1 2.9 17:36:22 10° NNE 17:40:33 45° E 17:44:42 10° S
Cosmos 1500 3.9 17:39:44 10° NNE 17:43:11 31° E 17:46:38 10° SE
Nadezhda 3 Rocket 4.2 17:40:16 10° SSE 17:46:06 46° E 17:52:01 10° NNE
EP 1 4.4 17:44:55 10° SSW 17:47:41 55° ESE 17:49:06 22° NE
Meteor 1-28 Rocket 4.2 17:45:29 14° NE 17:48:04 28° E 17:51:20 10° SSE
NOSS 2-1 (E) 4.3 17:47:02 10° S 17:50:23 28° ESE 17:52:07 20° ENE
Cosmos 864 Rocket 4.5 17:44:47 10° N 17:51:06 85° E 17:57:25 10° S
Hubble Space Telescope 3.6 17:52:30 10° SW 17:54:26 13° SSW 17:56:21 10° S
Cosmos 1536 Rocket 3.9 17:50:33 10° SSW 17:54:58 70° W 17:59:27 10° N
Tiangong 1 1.3 17:52:48 10° WSW 17:55:47 58° NNW 17:57:12 27° NE
GEOS 3 Rocket 4.4 17:53:31 14° E 17:56:55 28° NE 18:01:13 10° N
Okean 1 3.8 17:56:42 10° SSW 18:00:42 63° W 18:04:43 10° N
YAOGAN 1 3.7 17:58:28 10° S 18:02:38 47° W 18:06:49 10° NNW
Cosmos 1812 4.4 18:01:03 10° SSW 18:04:35 35° W 18:08:09 10° NNW
Cosmos 1025 Rocket 3.8 18:03:02 10° SSE 18:06:49 30° E 18:07:27 28° ENE
ATLAS 3B CENTAUR R/B 4.1 17:48:08 10° WSW 18:10:11 67° S 18:15:58 21° ESE
Cosmos 921 Rocket 2.9 18:08:03 10° S 18:12:11 61° ESE 18:14:34 24° NNE
COSMOS 2487 2.8 18:09:42 10° N 18:13:00 41° ENE 18:13:00 41° ENE
Meteor 2-21 Rocket 4.4 18:09:06 10° N 18:15:13 60° E 18:21:15 10° SSE
Cosmos 1346 Rocket 3.3 18:12:44 10° SSW 18:16:36 60° W 18:20:27 10° N
Cosmos 375 4.4 18:12:41 10° NNW 18:16:44 48° NE 18:17:40 39° E
Cosmos 1371 Rocket 4.3 18:13:02 10° S 18:18:06 45° ESE 18:20:09 31° NE
Meteor 2-16 Rocket 4.5 18:13:26 10° N 18:19:21 52° E 18:25:14 10° SSE
IDEFIX/ARIANE 42P 4.5 18:19:09 10° SSW 18:23:44 31° W 18:28:19 10° NW
Okean 1-7 Rocket 3.6 18:24:05 10° S 18:28:37 86° W 18:32:13 16° N
Cosmos 2297 3.9 18:24:57 10° SSW 18:30:34 70° WNW 18:35:04 16° NNE
Intercosmos 25 3.2 18:33:02 55° SSE 18:33:02 55° SSE 18:35:53 10° S
Delta 2 Rocket 3.2 18:33:53 10° W 18:37:48 79° NNW 18:38:03 74° NNE
ATLAS 2AS CENTAUR R/B 3.6 18:30:31 10° NW 18:38:14 56° WSW 18:45:20 10° S
OTV 4 2.8 18:40:08 10° W 18:42:24 19° SSW 18:42:43 19° SSW
Cosmos 2278 Rocket 4.2 18:40:38 10° WSW 18:45:06 24° WNW 18:49:36 10° N
Cosmos 1535 Rocket 4.3 18:41:04 10° N 18:47:22 78° E 18:53:33 10° S
Cosmos 1934 Rocket 3.9 18:41:52 10° N 18:48:00 61° E 18:54:12 10° SSE
Timation 2 Rocket 4.1 18:51:46 10° NNW 18:58:39 89° WSW 19:05:32 10° SSE
Cosmos 1743 4.4 19:10:05 32° WSW 19:10:05 32° WSW 19:12:56 10° SSW
Meteor 2-8 Rocket 4.5 19:05:48 10° SSW 19:11:51 74° W 19:14:09 40° N
Cosmos 1821 Rocket 4.2 19:07:15 10° NNW 19:13:16 64° W 19:19:15 10° S
Cosmos 2082 Rocket 2.3 19:09:00 10° NNW 19:14:38 71° WSW 19:15:50 54° SSW
Cosmos 1833 Rocket 3.0 19:10:30 10° NNW 19:14:56 56° NNW 19:14:56 56° NNW
FALCON 9 R/B 3.9 20:06:19 10° W 20:15:38 43° WNW 20:15:38 43° WNW
